TimeCDT,TemperatureF,Dew PointF,Humidity,Sea Level PressureIn,VisibilityMPH,Wind Direction,Wind SpeedMPH,Gust SpeedMPH,PrecipitationIn,Events,Conditions,WindDirDegrees,DateUTC
12:29 AM,66.2,60.8,83,30.00,10.0,NNW,6.9,-,N/A,,Mostly Cloudy,330,2012-09-30 05:29:00
12:42 AM,66.2,60.8,83,30.00,10.0,NNW,10.4,-,N/A,,Mostly Cloudy,330,2012-09-30 05:42:00
12:51 AM,66.0,60.1,81,29.95,10.0,NNW,10.4,-,N/A,,Overcast,330,2012-09-30 05:51:00
1:44 AM,66.2,59.0,78,29.99,10.0,NNW,8.1,-,N/A,,Overcast,330,2012-09-30 06:44:00
1:51 AM,66.0,60.1,81,29.94,10.0,NNW,10.4,-,N/A,,Overcast,330,2012-09-30 06:51:00
2:51 AM,66.0,59.0,78,29.94,10.0,NNW,12.7,-,N/A,,Overcast,330,2012-09-30 07:51:00
3:51 AM,66.0,60.1,81,29.94,10.0,NNW,9.2,-,N/A,,Overcast,330,2012-09-30 08:51:00
4:06 AM,66.2,59.0,78,29.98,10.0,NNW,10.4,-,N/A,,Overcast,330,2012-09-30 09:06:00
4:18 AM,66.2,59.0,78,29.97,10.0,NNW,8.1,-,N/A,,Overcast,330,2012-09-30 09:18:00
4:51 AM,64.9,59.0,81,29.93,10.0,NW,8.1,-,N/A,,Overcast,320,2012-09-30 09:51:00
5:38 AM,64.4,59.0,83,29.98,10.0,NNW,9.2,-,N/A,,Mostly Cloudy,330,2012-09-30 10:38:00
5:51 AM,64.9,59.0,81,29.93,10.0,NW,12.7,-,N/A,,Overcast,320,2012-09-30 10:51:00
6:02 AM,64.4,59.0,83,29.97,10.0,NNW,11.5,-,N/A,,Overcast,330,2012-09-30 11:02:00
6:51 AM,63.0,57.9,84,29.95,10.0,NW,9.2,-,N/A,,Partly Cloudy,310,2012-09-30 11:51:00
7:51 AM,63.0,57.9,84,29.96,10.0,NW,10.4,-,N/A,,Clear,320,2012-09-30 12:51:00
8:51 AM,64.9,59.0,81,29.97,10.0,NNW,11.5,-,N/A,,Clear,340,2012-09-30 13:51:00
9:51 AM,69.1,60.1,73,29.98,10.0,NNW,11.5,-,N/A,,Clear,330,2012-09-30 14:51:00
10:51 AM,71.1,60.1,68,29.98,10.0,North,10.4,-,N/A,,Clear,350,2012-09-30 15:51:00
11:51 AM,73.0,60.1,64,29.97,10.0,North,13.8,-,N/A,,Partly Cloudy,360,2012-09-30 16:51:00
12:51 PM,73.0,60.1,64,29.96,10.0,North,12.7,-,N/A,,Scattered Clouds,350,2012-09-30 17:51:00
1:51 PM,75.0,60.1,60,29.93,10.0,NNW,13.8,20.7,N/A,,Partly Cloudy,340,2012-09-30 18:51:00
2:51 PM,78.1,59.0,52,29.90,10.0,NNW,8.1,16.1,N/A,,Scattered Clouds,330,2012-09-30 19:51:00
3:51 PM,79.0,57.9,48,29.88,10.0,NW,11.5,-,N/A,,Scattered Clouds,320,2012-09-30 20:51:00
4:51 PM,79.0,57.0,47,29.86,10.0,NNW,10.4,-,N/A,,Clear,330,2012-09-30 21:51:00
5:51 PM,80.1,55.9,43,29.85,10.0,North,13.8,-,N/A,,Scattered Clouds,10,2012-09-30 22:51:00
6:51 PM,77.0,55.0,47,29.86,10.0,NNW,11.5,-,N/A,,Clear,340,2012-09-30 23:51:00
7:51 PM,73.0,57.9,59,29.87,10.0,NNW,3.5,-,N/A,,Clear,330,2012-10-01 00:51:00
8:51 PM,71.1,57.0,61,29.90,10.0,NNW,4.6,-,N/A,,Clear,340,2012-10-01 01:51:00
9:51 PM,66.0,59.0,78,29.89,10.0,Calm,Calm,-,N/A,,Clear,0,2012-10-01 02:51:00
10:51 PM,66.0,57.9,75,29.91,10.0,Calm,Calm,-,N/A,,Clear,0,2012-10-01 03:51:00
11:51 PM,63.0,57.9,84,29.90,10.0,SSW,5.8,-,N/A,,Clear,210,2012-10-01 04:51:00